Home   Weather   Guildford   Past weeks

Flag for United Kingdom Past Weather in Guildford, England, United Kingdom — Yesterday and Last 2 Weeks

Now
25 °F

Ice fog.


Feels Like: 25 °F
Forecast: N/A
Wind: 2 mph from South

Location: Farnborough Airport

Current Time: Jan 22, 2017 at 8:30:25 pm

Latest Report: Jan 22, 2017 at 7:50 pm


Visibility: 1 mi

Pressure: 30.33 "Hg

Humidity: 100%

Dew Point: 25 °F

Location of GuildfordLocation

Past Weather in Guildford — Graph

°F

Guildford Temperature Yesterday

Maximum temperature yesterday: 37 °F (at 12:50 pm)
Minimum temperature yesterday: 19 °F (at 8:20 am)
Average temperature yesterday: 31 °F

High & Low Weather Summary for the Past Weeks

 TemperatureHumidityPressure
High52 °F (Jan 11, 10:50 am)100% (Jan 7, 7:20 pm)30.69 "Hg (Jan 7, 7:20 pm)
Low19 °F (Jan 21, 8:20 am)48% (Jan 18, 1:50 pm)29.33 "Hg (Jan 12, 4:50 pm)
Average39 °F84%30.22 "Hg
* Reported Jan 7 7:20 pm — Jan 22 7:20 pm, Guildford, Weather by CustomWeather, © 2017

Note: Actual official high and low records may vary slightly from our data, if they occured in-between our weather recording intervals... More about our weather records

Advertising

Guildford Weather History for the Previous 24 Hours

Scroll right to see more
 ConditionsComfort  
Time TempWeatherWind HumidityBarometerVisibility
7:20 pm
Sun, Jan 22
27 °FIce fog.1 mph100%30.33 "Hg1 mi
6:50 pm27 °FIce fog.3 mph100%30.33 "Hg1 mi
6:20 pm27 °FIce fog.2 mph100%30.33 "Hg1 mi
5:50 pm28 °FIce fog.1 mph100%30.33 "Hg1 mi
5:20 pm30 °FIce fog.2 mph100%30.33 "Hg2 mi
4:50 pm32 °FHaze.2 mph93%30.30 "Hg2 mi
4:20 pm36 °FHaze.2 mph87%30.30 "Hg3 mi
3:50 pm39 °FClear.3 mph81%30.30 "Hg4 mi
3:20 pm41 °FClear.3 mph81%30.30 "Hg4 mi
2:50 pm43 °FClear.3 mph76%30.30 "Hg4 mi
2:20 pm43 °FClear.5 mph76%30.30 "Hg4 mi
1:50 pm43 °FClear.5 mph71%30.30 "Hg4 mi
1:20 pm41 °FClear.6 mph76%30.30 "Hg4 mi
12:50 pm41 °FClear.3 mph76%30.33 "Hg4 mi
12:20 pm41 °FClear.5 mph76%30.33 "Hg4 mi
11:50 am37 °FHaze.3 mph81%30.33 "Hg3 mi
11:20 am36 °FHaze.1 mph87%30.33 "Hg3 mi
10:50 am32 °FHaze.1 mph93%30.33 "Hg2 mi
10:20 am32 °FHaze.No wind87%30.33 "Hg2 mi
9:50 am28 °FHaze.1 mph93%30.33 "Hg2 mi
9:20 am28 °FIce fog.No wind100%30.33 "Hg2 mi
8:50 am25 °FIce fog.2 mph93%30.30 "Hg2 mi
8:20 am19 °FIce fog.3 mph100%30.30 "Hg2 mi
7:50 am21 °FIce fog.3 mph100%30.30 "Hg3 mi
Weather by CustomWeather, © 2017

See weather overviewHow to use our weather pages